EW5085 Fripp Island SC US current weather conditions

sailwx.info

Wind from 229 at 6 knots gusting 10

Air temperature 14.4° C
Dewpoint 13.8° C

Last reported at 2020-Jan-25 03:59 UTC.
Time now 2020-Jan-25 04:28 UTC

Location: N 32°20' W 080°29'.
View on Google Maps.

See reports from other nearby stations

  
Tides and Currents Weather Stations Pressure Air Temp Water Temp Dewpoint Dewpoint Depression Visibility Wind Speed Wind Dir Waves Ship Positions
date/time (UTC)wind fromknots sea level pressurealtimeterstation pressurevisibilityair tempwater tempwave heightnotes
2020-Jan-25 03:59 229 6 gusting 10 14.4
2020-Jan-25 03:54 230 6 gusting 8 14.4
2020-Jan-25 03:49 233 5 gusting 10 14.4
2020-Jan-25 03:44 232 5 gusting 10 14.4
2020-Jan-25 03:39 232 5 gusting 8 14.4
2020-Jan-25 03:34 235 5 gusting 8 14.4
2020-Jan-25 03:29 231 6 gusting 10 14.4
2020-Jan-25 03:24 221 6 gusting 10 14.4
2020-Jan-25 03:19 235 7 gusting 10 14.4
2020-Jan-25 03:14 213 6 gusting 10 14.4
2020-Jan-25 03:09 222 6 gusting 10 14.4
2020-Jan-25 03:04 210 6 gusting 8 14.4
2020-Jan-25 02:59 216 6 gusting 10 14.4
2020-Jan-25 02:54 212 6 gusting 10 15.0
2020-Jan-25 02:49 211 6 gusting 9 15.0
2020-Jan-25 02:44 213 6 gusting 9 15.0
2020-Jan-25 02:39 219 6 gusting 8 15.0
2020-Jan-25 02:34 213 6 gusting 10 15.0
2020-Jan-25 02:29 219 6 gusting 10 15.0
2020-Jan-25 02:24 219 5 gusting 8 15.0
2020-Jan-25 02:19 215 6 gusting 8 15.0
2020-Jan-25 02:14 215 6 gusting 9 15.0
2020-Jan-25 02:09 217 6 gusting 10 15.0
2020-Jan-25 02:04 215 6 gusting 10 15.6
2020-Jan-25 01:59 205 6 gusting 9 15.6
2020-Jan-25 01:54 219 6 gusting 9 15.6
2020-Jan-25 01:49 218 6 gusting 10 15.6
2020-Jan-25 01:44 213 6 gusting 10 15.6
2020-Jan-25 01:39 212 6 gusting 10 15.6
2020-Jan-25 01:34 217 6 gusting 12 15.6
2020-Jan-25 01:29 221 5 gusting 12 16.1
2020-Jan-25 01:24 210 5 gusting 11 15.6
2020-Jan-25 01:19 208 4 gusting 11 16.1
2020-Jan-25 01:14 202 4 gusting 6 16.1
2020-Jan-25 01:09 214 4 gusting 8 16.1
2020-Jan-25 01:04 198 4 gusting 9 16.1
2020-Jan-25 00:59 204 5 gusting 9 16.1
2020-Jan-25 00:54 202 5 gusting 8 16.1
2020-Jan-25 00:49 210 4 gusting 7 16.1
2020-Jan-25 00:44 211 3 gusting 6 15.6
2020-Jan-25 00:39 210 3 gusting 6 15.6
2020-Jan-25 00:34 206 3 gusting 6 15.6
2020-Jan-25 00:29 196 3 gusting 5 15.6
2020-Jan-25 00:24 220 3 gusting 6 15.6
2020-Jan-25 00:19 192 3 gusting 6 15.6
2020-Jan-25 00:14 203 3 gusting 6 16.1
2020-Jan-25 00:09 223 3 gusting 5 16.1
2020-Jan-25 00:04 194 3 gusting 5 16.1
2020-Jan-24 23:59 155 2 gusting 5 16.1
2020-Jan-24 23:54 196 3 gusting 5 16.1
2020-Jan-24 23:49 188 3 gusting 5 16.1
2020-Jan-24 23:44 192 3 gusting 6 16.1
2020-Jan-24 23:39 182 3 gusting 6 16.1
2020-Jan-24 23:34 186 3 gusting 6 16.1
2020-Jan-24 23:29 182 2 gusting 6 16.1
2020-Jan-24 23:24 193 1 gusting 4 16.1
2020-Jan-24 23:19 190 1 gusting 4 16.1
2020-Jan-24 23:14 188 2 gusting 4 16.1
2020-Jan-24 23:09 194 2 gusting 5 15.6
2020-Jan-24 23:04 157 2 gusting 5 15.6
2020-Jan-24 22:59 159 2 gusting 5 15.6
2020-Jan-24 22:54 150 2 gusting 4 15.6
2020-Jan-24 22:49 142 2 gusting 6 15.6
2020-Jan-24 22:44 202 2 gusting 6 15.6
2020-Jan-24 22:39 188 2 gusting 6 15.6
2020-Jan-24 22:34 198 2 gusting 10 15.6
2020-Jan-24 22:29 186 3 gusting 10 15.6
2020-Jan-24 22:24 166 2 gusting 6 15.6
2020-Jan-24 22:19 157 1 gusting 6 15.6
2020-Jan-24 22:14 178 1 gusting 5 16.1
2020-Jan-24 22:09 148 2 gusting 6 16.1
2020-Jan-24 22:04 182 2 gusting 9 16.1
2020-Jan-24 21:59 190 3 gusting 9 16.1
2020-Jan-24 21:54 184 2 gusting 5 16.1
2020-Jan-24 21:49 169 2 gusting 6 16.1
2020-Jan-24 21:44 196 1 gusting 6 16.1
2020-Jan-24 21:39 190 1 gusting 6 16.1
2020-Jan-24 21:34 171 1 gusting 6 16.1
2020-Jan-24 21:29 154 1 gusting 6 16.1
2020-Jan-24 21:24 158 2 gusting 6 16.1
2020-Jan-24 21:19 150 2 gusting 6 16.1
2020-Jan-24 21:14 189 2 gusting 6 15.6
2020-Jan-24 21:09 175 2 gusting 6 15.6
2020-Jan-24 21:04 160 2 gusting 6 15.6
2020-Jan-24 20:59 194 2 gusting 6 16.1
2020-Jan-24 20:54 190 3 gusting 6 16.1
2020-Jan-24 20:49 206 3 gusting 6 16.1
2020-Jan-24 20:43 200 3 gusting 9 16.1
2020-Jan-24 20:38 200 3 gusting 9 16.1
2020-Jan-24 20:33 192 2 gusting 6 16.1
2020-Jan-24 20:28 195 2 gusting 5 16.1
2020-Jan-24 20:23 186 2 gusting 4 16.1
2020-Jan-24 20:18 188 2 gusting 5 16.7
2020-Jan-24 20:13 198 2 gusting 6 16.1
2020-Jan-24 20:08 213 2 gusting 6 16.1
2020-Jan-24 20:03 202 3 gusting 6 16.1
2020-Jan-24 19:58 211 3 gusting 6 16.1
2020-Jan-24 19:53 210 3 gusting 6 16.1
2020-Jan-24 19:48 196 3 gusting 6 16.1
2020-Jan-24 19:43 196 3 gusting 6 16.1
2020-Jan-24 19:38 222 3 gusting 8 16.1
2020-Jan-24 19:33 208 3 gusting 8 16.1
2020-Jan-24 19:28 208 3 gusting 6 16.1
2020-Jan-24 19:23 186 3 gusting 6 16.1
2020-Jan-24 19:18 203 3 gusting 6 16.7
2020-Jan-24 19:13 214 3 gusting 6 16.7
2020-Jan-24 19:08 190 3 gusting 6 16.7
2020-Jan-24 19:03 204 3 gusting 6 16.7
2020-Jan-24 18:58 194 3 gusting 6 16.7
2020-Jan-24 18:53 188 2 gusting 6 16.7
2020-Jan-24 18:48 203 2 gusting 5 16.7
2020-Jan-24 18:43 194 1 gusting 4 16.7
2020-Jan-24 18:38 142 1 gusting 4 16.7
2020-Jan-24 18:33 142 1 gusting 5 16.7
2020-Jan-24 18:28 160 0 gusting 5 16.7
2020-Jan-24 18:23 069 0 gusting 3 16.1
2020-Jan-24 18:18 069 0 gusting 3 15.6
2020-Jan-24 18:13 069 0 gusting 2 15.6
2020-Jan-24 18:08 069 1 gusting 2 15.0
2020-Jan-24 18:03 069 0 gusting 2 15.0
2020-Jan-24 17:58 069 0 gusting 3 15.0
2020-Jan-24 17:53 069 0 gusting 5 15.0
2020-Jan-24 17:48 069 1 gusting 5 15.0
2020-Jan-24 17:43 067 0 gusting 4 15.0
2020-Jan-24 17:38 223 16.1
2020-Jan-24 17:33 223 0 gusting 2 15.6
2020-Jan-24 17:28 223 0 gusting 4 15.6
2020-Jan-24 17:23 224 0 gusting 4 15.6
2020-Jan-24 17:18 159 0 gusting 5 16.1
2020-Jan-24 17:13 169 0 gusting 5 16.1
2020-Jan-24 17:08 145 16.1
2020-Jan-24 17:03 135 16.1
2020-Jan-24 16:58 135 15.6
2020-Jan-24 16:53 132 15.6
2020-Jan-24 16:48 132 15.6
2020-Jan-24 16:43 132 15.6
2020-Jan-24 16:38 132 15.6
2020-Jan-24 16:33 132 15.6
2020-Jan-24 16:27 133 15.6
2020-Jan-24 16:22 133 15.0
2020-Jan-24 16:17 133 15.0
2020-Jan-24 16:12 133 14.4
2020-Jan-24 16:07 133 14.4
2020-Jan-24 16:02 171 14.4
2020-Jan-24 15:57 171 14.4
2020-Jan-24 15:52 171 14.4
2020-Jan-24 15:47 064 14.4
2020-Jan-24 15:42 064 14.4
2020-Jan-24 15:37 064 14.4
2020-Jan-24 15:32 064 13.9
2020-Jan-24 15:27 064 13.9
2020-Jan-24 15:22 064 13.9
2020-Jan-24 15:17 064 13.9
2020-Jan-24 15:12 064 13.3
2020-Jan-24 15:07 064 0 gusting 3 13.3
2020-Jan-24 15:02 064 0 gusting 3 13.3
2020-Jan-24 14:57 064 1 gusting 4 13.3
2020-Jan-24 14:52 064 3 gusting 7 12.8
2020-Jan-24 14:47 065 4 gusting 7 12.8
2020-Jan-24 14:42 071 3 gusting 7 12.8
2020-Jan-24 14:37 063 3 gusting 8 12.8
2020-Jan-24 14:32 067 4 gusting 8 12.8
2020-Jan-24 14:27 058 4 gusting 8 12.8
2020-Jan-24 14:22 068 4 gusting 9 12.8
2020-Jan-24 14:17 069 4 gusting 9 12.8
2020-Jan-24 14:12 066 3 gusting 8 12.8
2020-Jan-24 14:07 070 2 gusting 6 12.8
2020-Jan-24 14:02 069 2 gusting 5 12.8
2020-Jan-24 13:57 069 2 gusting 5 12.8
2020-Jan-24 13:52 069 2 gusting 5 12.8
2020-Jan-24 13:47 069 2 gusting 4 12.8
2020-Jan-24 13:42 069 2 gusting 6 12.8
2020-Jan-24 13:37 069 2 gusting 6 12.8
2020-Jan-24 13:32 063 2 gusting 6 12.8
2020-Jan-24 13:27 063 3 gusting 6 12.8
2020-Jan-24 13:22 069 3 gusting 7 12.8
2020-Jan-24 13:17 069 4 gusting 7 12.8
2020-Jan-24 13:12 061 2 gusting 6 12.8
2020-Jan-24 13:07 073 1 gusting 4 12.2
2020-Jan-24 13:02 074 1 gusting 2 11.7
2020-Jan-24 12:57 074 1 gusting 2 11.7
2020-Jan-24 12:52 074 1 gusting 2 11.7
2020-Jan-24 12:47 074 1 gusting 2 12.2
2020-Jan-24 12:42 074 1 gusting 2 12.2
2020-Jan-24 12:37 074 1 gusting 2 12.2
2020-Jan-24 12:32 074 2 gusting 4 12.2
2020-Jan-24 12:27 074 2 gusting 4 12.2
2020-Jan-24 12:22 075 2 gusting 3 12.2
2020-Jan-24 12:17 075 2 gusting 6 12.2
2020-Jan-24 12:12 076 2 gusting 6 12.2
2020-Jan-24 12:07 070 2 gusting 4 12.2
2020-Jan-24 12:02 070 2 gusting 4 12.8
2020-Jan-24 11:57 070 1 gusting 4 12.2
2020-Jan-24 11:52 071 12.2
2020-Jan-24 11:47 071 12.2
2020-Jan-24 11:42 071 12.2
2020-Jan-24 11:37 071 12.2
2020-Jan-24 11:32 071 12.2
2020-Jan-24 11:27 071 12.8
2020-Jan-24 11:22 071 12.8
2020-Jan-24 11:17 071 12.8
2020-Jan-24 11:12 071 0 gusting 3 12.8
2020-Jan-24 11:07 071 1 gusting 3 12.8
2020-Jan-24 11:02 071 1 gusting 3 12.8
2020-Jan-24 10:57 071 2 gusting 7 12.8
2020-Jan-24 10:52 071 3 gusting 7 12.8
2020-Jan-24 10:47 069 4 gusting 8 12.8
2020-Jan-24 10:42 063 5 gusting 9 12.8
2020-Jan-24 10:37 071 6 gusting 11 12.8
2020-Jan-24 10:32 065 6 gusting 11 12.8
2020-Jan-24 10:27 078 5 gusting 9 12.8
2020-Jan-24 10:22 065 5 gusting 9 12.8
2020-Jan-24 10:17 071 5 gusting 9 12.8
2020-Jan-24 10:12 065 5 gusting 9 12.8
2020-Jan-24 10:07 062 5 gusting 11 12.8
2020-Jan-24 10:02 066 5 gusting 11 12.8
2020-Jan-24 09:57 050 5 gusting 9 12.8
2020-Jan-24 09:52 044 5 gusting 10 12.8
2020-Jan-24 09:47 055 5 gusting 10 12.8
2020-Jan-24 09:42 061 6 gusting 10 12.8
2020-Jan-24 09:37 061 6 gusting 10 12.8
2020-Jan-24 09:32 067 5 gusting 10 12.8
2020-Jan-24 09:27 062 5 gusting 11 12.8
2020-Jan-24 09:22 055 5 gusting 11 12.8
2020-Jan-24 09:17 074 6 gusting 12 12.8
2020-Jan-24 09:12 061 6 gusting 12 12.8
2020-Jan-24 09:07 074 5 gusting 10 12.8
2020-Jan-24 09:02 068 5 gusting 10 12.8
2020-Jan-24 08:57 067 5 gusting 8 12.8
2020-Jan-24 08:52 073 4 gusting 8 12.8
2020-Jan-24 08:47 063 5 gusting 9 12.8
2020-Jan-24 08:42 071 6 gusting 10 12.8
2020-Jan-24 08:37 066 6 gusting 10 12.8
2020-Jan-24 08:32 076 6 gusting 10 12.8
2020-Jan-24 08:27 055 6 gusting 10 12.8
2020-Jan-24 08:22 063 6 gusting 10 12.8
2020-Jan-24 08:17 063 5 gusting 9 12.8
2020-Jan-24 08:12 071 6 gusting 11 12.8
2020-Jan-24 08:07 070 6 gusting 11 12.8
2020-Jan-24 08:02 064 6 gusting 13 12.8
2020-Jan-24 07:57 052 6 gusting 13 12.8
2020-Jan-24 07:52 050 6 gusting 12 12.8
2020-Jan-24 07:47 070 5 gusting 8 12.8
2020-Jan-24 07:42 069 5 gusting 10 12.8
2020-Jan-24 07:37 059 5 gusting 10 12.8
2020-Jan-24 07:32 070 4 gusting 9 12.8
2020-Jan-24 07:27 069 5 gusting 9 12.8
2020-Jan-24 07:22 061 5 gusting 9 12.8
2020-Jan-24 07:17 069 5 gusting 9 12.8
2020-Jan-24 07:12 058 4 gusting 8 12.8
2020-Jan-24 07:07 070 5 gusting 11 12.8
2020-Jan-24 07:02 071 6 gusting 11 12.8
2020-Jan-24 06:57 067 5 gusting 10 12.8
2020-Jan-24 06:52 069 6 gusting 13 12.8
2020-Jan-24 06:47 069 6 gusting 13 12.8
2020-Jan-24 06:42 066 5 gusting 11 12.8
2020-Jan-24 06:37 068 5 gusting 11 12.8
2020-Jan-24 06:31 059 6 gusting 10 12.8
2020-Jan-24 06:26 063 5 gusting 10 12.8
2020-Jan-24 06:21 078 5 gusting 9 12.8
2020-Jan-24 06:16 068 5 gusting 10 12.8
2020-Jan-24 06:11 078 5 gusting 10 12.8
2020-Jan-24 06:06 053 5 gusting 10 12.8
2020-Jan-24 06:01 063 5 gusting 9 12.8
2020-Jan-24 05:56 067 4 gusting 9 12.8
2020-Jan-24 05:51 063 4 gusting 11 12.8
2020-Jan-24 05:46 062 5 gusting 11 12.8
2020-Jan-24 05:41 063 5 gusting 9 12.8
2020-Jan-24 05:36 061 4 gusting 9 12.8
2020-Jan-24 05:31 065 4 gusting 9 12.8
2020-Jan-24 05:26 078 5 gusting 10 12.8
2020-Jan-24 05:21 059 5 gusting 12 12.8
2020-Jan-24 05:16 066 6 gusting 12 12.8
2020-Jan-24 05:11 045 6 gusting 11 12.8
2020-Jan-24 05:06 039 6 gusting 11 13.3
2020-Jan-24 05:01 077 5 gusting 13 13.3
2020-Jan-24 04:56 056 5 gusting 13 12.8
2020-Jan-24 04:51 059 5 gusting 10 12.8
2020-Jan-24 04:46 055 5 gusting 10 12.8
2020-Jan-24 04:41 062 5 gusting 11 12.8
2020-Jan-24 04:36 067 5 gusting 11 12.8
2020-Jan-24 04:31 072 5 gusting 10 12.8
2020-Jan-24 04:26 059 6 gusting 11 12.8
2020-Jan-24 04:21 060 6 gusting 11 12.8
2020-Jan-24 04:16 067 6 gusting 12 12.8
2020-Jan-24 04:11 044 5 gusting 12 12.8
2020-Jan-24 04:06 042 5 gusting 11 12.2
2020-Jan-24 04:01 044 4 gusting 10 12.2
2020-Jan-24 03:56 065 4 gusting 9 12.2
2020-Jan-24 03:51 058 3 gusting 9 11.7
2020-Jan-24 03:46 058 3 gusting 9 11.7
2020-Jan-24 03:41 063 3 gusting 7 11.1
2020-Jan-24 03:36 069 2 gusting 5 11.1
2020-Jan-24 03:31 058 2 gusting 4 11.1
2020-Jan-24 03:26 060 2 gusting 4 11.1
2020-Jan-24 03:21 051 2 gusting 5 11.1
2020-Jan-24 03:16 057 2 gusting 5 11.1
2020-Jan-24 03:11 053 2 gusting 4 10.6
2020-Jan-24 03:06 060 2 gusting 3 11.1
2020-Jan-24 03:01 055 2 gusting 4 11.1
2020-Jan-24 02:56 053 2 gusting 4 11.1
2020-Jan-24 02:51 050 3 gusting 4 11.1
2020-Jan-24 02:46 055 3 gusting 5 11.1
2020-Jan-24 02:41 060 3 gusting 5 11.1
2020-Jan-24 02:36 058 3 gusting 7 11.7
2020-Jan-24 02:31 047 4 gusting 8 11.7
2020-Jan-24 02:26 049 5 gusting 8 11.7
2020-Jan-24 02:21 065 4 gusting 8 11.7
2020-Jan-24 02:16 065 5 gusting 8 11.7
2020-Jan-24 02:11 062 5 gusting 9 11.7
2020-Jan-24 02:06 094 6 gusting 12 11.7
2020-Jan-24 02:01 061 6 gusting 12 11.7
2020-Jan-24 01:56 057 5 gusting 12 11.7
2020-Jan-24 01:51 056 5 gusting 10 11.7
2020-Jan-24 01:46 047 5 gusting 9 11.7
2020-Jan-24 01:41 067 6 gusting 12 11.7
2020-Jan-24 01:36 061 6 gusting 12 11.7
2020-Jan-24 01:31 076 6 gusting 12 11.7
2020-Jan-24 01:26 059 6 gusting 12 11.7
2020-Jan-24 01:21 068 6 gusting 12 11.7
2020-Jan-24 01:16 067 6 gusting 13 12.2
2020-Jan-24 01:11 060 6 gusting 13 12.2
2020-Jan-24 01:06 069 6 gusting 12 12.2
2020-Jan-24 01:00 062 6 gusting 13 12.2
2020-Jan-24 00:55 070 6 gusting 13 11.7
2020-Jan-24 00:50 069 6 gusting 13 11.7
2020-Jan-24 00:45 060 6 gusting 13 11.7
2020-Jan-24 00:40 059 6 gusting 10 11.7
2020-Jan-24 00:35 052 6 gusting 13 11.7
2020-Jan-24 00:30 084 6 gusting 13 11.7
2020-Jan-24 00:25 072 6 gusting 13 11.7
2020-Jan-24 00:20 071 6 gusting 13 11.7
2020-Jan-24 00:15 078 6 gusting 13 11.7
2020-Jan-24 00:10 065 6 gusting 13 11.7
2020-Jan-24 00:05 076 6 gusting 13 11.7
2020-Jan-24 00:00 068 7 gusting 13 11.7
2020-Jan-23 23:55 058 7 gusting 13 11.7
2020-Jan-23 23:50 078 6 gusting 13 11.7
2020-Jan-23 23:45 067 6 gusting 13 11.7
2020-Jan-23 23:40 049 6 gusting 12 11.7
2020-Jan-23 23:35 078 6 gusting 11 11.7
2020-Jan-23 23:30 082 6 gusting 11 11.7
2020-Jan-23 23:25 061 5 gusting 10 11.7
2020-Jan-23 23:20 048 4 gusting 10 11.7
2020-Jan-23 23:15 071 5 gusting 10 11.7
2020-Jan-23 23:10 066 5 gusting 10 11.7
2020-Jan-23 23:05 069 4 gusting 9 11.1
2020-Jan-23 23:00 063 4 gusting 8 11.1
2020-Jan-23 22:55 061 4 gusting 8 11.1
2020-Jan-23 22:50 073 3 gusting 8 11.1
2020-Jan-23 22:45 069 3 gusting 6 11.1
2020-Jan-23 22:40 069 3 gusting 7 11.1
2020-Jan-23 22:35 059 3 gusting 7 11.1
2020-Jan-23 22:30 069 3 gusting 7 11.7
2020-Jan-23 22:25 067 3 gusting 7 11.1
2020-Jan-23 22:20 074 3 gusting 8 11.1
2020-Jan-23 22:15 069 3 gusting 8 11.1
2020-Jan-23 22:10 063 3 gusting 7 11.1
2020-Jan-23 22:05 067 3 gusting 7 11.1
2020-Jan-23 22:00 060 3 gusting 8 11.1
2020-Jan-23 21:55 068 3 gusting 8 11.1
2020-Jan-23 21:50 069 4 gusting 9 11.1
2020-Jan-23 21:45 067 4 gusting 9 11.1
2020-Jan-23 21:40 074 5 gusting 10 11.1
2020-Jan-23 21:35 065 6 gusting 10 11.7
2020-Jan-23 21:30 072 5 gusting 9 11.7
2020-Jan-23 21:25 061 6 gusting 12 11.7
2020-Jan-23 21:20 069 6 gusting 12 11.7
2020-Jan-23 21:15 063 5 gusting 10 11.7
2020-Jan-23 21:10 059 5 gusting 10 11.7
2020-Jan-23 21:05 067 5 gusting 12 12.2
2020-Jan-23 21:00 059 5 gusting 12 12.2
2020-Jan-23 20:55 074 5 gusting 10 12.2
2020-Jan-23 20:50 061 5 gusting 11 12.2
2020-Jan-23 20:45 046 5 gusting 11 12.2
2020-Jan-23 20:40 055 5 gusting 11 12.2
2020-Jan-23 20:35 054 6 gusting 11 11.7
2020-Jan-23 20:30 077 5 gusting 11 12.2
2020-Jan-23 20:25 080 4 gusting 11 12.2
2020-Jan-23 20:20 058 3 gusting 6 12.2
2020-Jan-23 20:15 063 3 gusting 6 11.7
2020-Jan-23 20:10 059 2 gusting 6 11.7
2020-Jan-23 20:05 058 2 gusting 3 11.7
2020-Jan-23 20:00 051 3 gusting 4 11.1
2020-Jan-23 19:55 053 3 gusting 4 11.1
2020-Jan-23 19:50 048 3 gusting 4 11.1
2020-Jan-23 19:45 045 3 gusting 6 11.1
2020-Jan-23 19:40 053 3 gusting 6 10.6
2020-Jan-23 19:35 049 3 gusting 4 10.6
2020-Jan-23 19:30 044 3 gusting 5 10.6
2020-Jan-23 19:25 043 3 gusting 5 10.6
2020-Jan-23 19:20 049 2 gusting 4 10.6
2020-Jan-23 19:15 050 2 gusting 4 10.6
2020-Jan-23 19:10 049 2 gusting 4 10.6
2020-Jan-23 19:05 051 2 gusting 4 10.6
2020-Jan-23 19:00 047 2 gusting 4 10.6
2020-Jan-23 18:55 043 1 gusting 3 10.6
2020-Jan-23 18:50 044 1 gusting 3 10.6
2020-Jan-23 18:45 046 1 gusting 3 10.6
2020-Jan-23 18:40 047 1 gusting 3 10.6
2020-Jan-23 18:35 047 2 gusting 4 10.6
2020-Jan-23 18:30 048 2 gusting 4 10.6
2020-Jan-23 18:25 037 2 gusting 4 10.6
2020-Jan-23 18:20 037 2 gusting 5 10.6
2020-Jan-23 18:15 041 2 gusting 5 10.6
2020-Jan-23 18:10 037 3 gusting 5 10.6
2020-Jan-23 18:05 044 3 gusting 5 10.6
2020-Jan-23 18:00 036 2 gusting 5 10.6
2020-Jan-23 17:55 036 2 gusting 5 10.0
2020-Jan-23 17:50 355 2 gusting 5 10.0
2020-Jan-23 17:45 009 2 gusting 4 10.0
2020-Jan-23 17:40 026 2 gusting 4 10.0
2020-Jan-23 17:35 027 2 gusting 3 10.0
2020-Jan-23 17:30 009 1 gusting 3 10.0
2020-Jan-23 17:25 351 1 gusting 4 10.0
2020-Jan-23 17:20 005 1 gusting 4 10.0
2020-Jan-23 17:15 005 1 gusting 4 9.4
2020-Jan-23 17:10 9.4
2020-Jan-23 17:05 005 2 gusting 4 9.4
2020-Jan-23 17:00 355 2 gusting 6 9.4
2020-Jan-23 16:55 005 2 gusting 6 9.4
2020-Jan-23 16:50 005 2 gusting 4 9.4
2020-Jan-23 16:45 005 2 gusting 4 9.4
2020-Jan-23 16:40 038 2 gusting 4 9.4
2020-Jan-23 16:35 042 2 gusting 4 9.4
2020-Jan-23 16:30 032 2 gusting 4 9.4
2020-Jan-23 16:24 042 2 gusting 4 9.4
2020-Jan-23 16:19 035 2 gusting 4 9.4
2020-Jan-23 16:14 039 2 gusting 4 9.4
2020-Jan-23 16:09 040 2 gusting 4 9.4
2020-Jan-23 16:04 046 2 gusting 4 9.4
2020-Jan-23 15:59 067 3 gusting 5 8.9
2020-Jan-23 15:54 043 3 gusting 5 8.9
2020-Jan-23 15:49 054 2 gusting 5 8.9
2020-Jan-23 15:44 037 2 gusting 5 8.9
2020-Jan-23 15:39 015 3 gusting 5 8.3
2020-Jan-23 15:34 046 3 gusting 5 8.3
2020-Jan-23 15:29 042 3 gusting 5 8.3
2020-Jan-23 15:24 048 3 gusting 5 8.3
2020-Jan-23 15:19 061 3 gusting 5 7.8
2020-Jan-23 15:14 042 3 gusting 5 7.8
2020-Jan-23 15:09 036 3 gusting 5 7.8
2020-Jan-23 15:04 036 3 gusting 5 7.8
2020-Jan-23 14:59 066 3 gusting 4 7.8
2020-Jan-23 14:54 051 3 gusting 5 7.2
2020-Jan-23 14:49 049 3 gusting 6 7.2
2020-Jan-23 14:44 044 4 gusting 6 7.2
2020-Jan-23 14:39 057 4 gusting 6 7.2
2020-Jan-23 14:34 043 4 gusting 6 7.2
2020-Jan-23 14:29 045 4 gusting 5 7.2
2020-Jan-23 14:24 040 4 gusting 6 7.2
2020-Jan-23 14:19 049 4 gusting 6 6.7
2020-Jan-23 14:14 040 4 gusting 6 7.2
2020-Jan-23 14:09 052 4 gusting 7 6.7
2020-Jan-23 14:04 044 4 gusting 7 6.7
2020-Jan-23 13:59 046 4 gusting 6 6.7
2020-Jan-23 13:54 040 4 gusting 6 6.7
2020-Jan-23 13:49 042 5 gusting 7 6.7
2020-Jan-23 13:44 040 4 gusting 7 6.7
2020-Jan-23 13:39 039 4 gusting 6 6.7
2020-Jan-23 13:34 046 4 gusting 6 6.7
2020-Jan-23 13:29 039 4 gusting 6 6.7
2020-Jan-23 13:24 044 4 gusting 6 6.7
2020-Jan-23 13:19 043 4 gusting 6 6.7
2020-Jan-23 13:14 042 4 gusting 6 6.7
2020-Jan-23 13:09 059 4 gusting 6 6.7
2020-Jan-23 13:04 049 4 gusting 6 6.7
2020-Jan-23 12:59 036 4 gusting 6 6.7
2020-Jan-23 12:54 042 4 gusting 6 6.7
2020-Jan-23 12:49 050 4 gusting 6 6.7
2020-Jan-23 12:44 041 4 gusting 6 6.7
2020-Jan-23 12:39 050 4 gusting 7 6.7
2020-Jan-23 12:34 055 5 gusting 7 6.7
2020-Jan-23 12:29 048 4 gusting 7 6.7
2020-Jan-23 12:24 036 4 gusting 7 6.7
2020-Jan-23 12:19 039 4 gusting 7 6.7
2020-Jan-23 12:14 063 4 gusting 5 6.7
2020-Jan-23 12:09 041 4 gusting 7 6.7
2020-Jan-23 12:04 048 4 gusting 7 6.7
2020-Jan-23 11:59 042 4 gusting 7 6.7
2020-Jan-23 11:54 052 4 gusting 7 6.7
2020-Jan-23 11:49 052 4 gusting 6 6.7
2020-Jan-23 11:44 051 4 gusting 6 6.7
2020-Jan-23 11:39 071 3 gusting 6 6.7
2020-Jan-23 11:34 044 3 gusting 5 6.7
2020-Jan-23 11:29 056 4 gusting 5 6.7
2020-Jan-23 11:24 057 3 gusting 5 6.7
2020-Jan-23 11:19 040 3 gusting 5 6.7
2020-Jan-23 11:14 043 3 gusting 4 6.7
2020-Jan-23 11:09 049 3 gusting 5 6.7
2020-Jan-23 11:04 061 3 gusting 6 6.7
2020-Jan-23 10:59 055 4 gusting 6 6.1
2020-Jan-23 10:54 046 4 gusting 6 6.1
2020-Jan-23 10:49 039 3 gusting 6 6.1
2020-Jan-23 10:44 065 3 gusting 5 6.1
2020-Jan-23 10:39 048 3 gusting 5 6.1
2020-Jan-23 10:34 057 3 gusting 5 6.1
2020-Jan-23 10:29 043 3 gusting 5 5.6
2020-Jan-23 10:24 042 3 gusting 6 5.6
2020-Jan-23 10:19 043 3 gusting 6 5.6
2020-Jan-23 10:14 049 3 gusting 5 5.6
2020-Jan-23 10:09 039 3 gusting 6 5.6
2020-Jan-23 10:04 038 4 gusting 6 5.6
2020-Jan-23 09:59 049 3 gusting 5 5.6
2020-Jan-23 09:54 053 3 gusting 7 5.6
2020-Jan-23 09:49 054 3 gusting 7 5.6
2020-Jan-23 09:44 047 3 gusting 5 5.6
2020-Jan-23 09:39 042 3 gusting 5 5.6
2020-Jan-23 09:34 040 3 gusting 4 5.6
2020-Jan-23 09:29 033 3 gusting 5 5.6
2020-Jan-23 09:24 049 3 gusting 5 5.6
2020-Jan-23 09:19 038 3 gusting 5 5.6
2020-Jan-23 09:14 038 4 gusting 6 5.6
2020-Jan-23 09:09 050 4 gusting 6 5.6
2020-Jan-23 09:04 044 4 gusting 6 5.6
2020-Jan-23 08:59 040 4 gusting 6 5.6
2020-Jan-23 08:54 044 3 gusting 5 5.6
2020-Jan-23 08:49 040 3 gusting 5 6.1
2020-Jan-23 08:44 046 3 gusting 5 6.1
2020-Jan-23 08:39 046 3 gusting 6 6.1
2020-Jan-23 08:34 073 2 gusting 6 6.1
2020-Jan-23 08:29 049 3 gusting 4 6.1
2020-Jan-23 08:24 044 3 gusting 4 6.1
2020-Jan-23 08:19 042 3 gusting 4 6.1
2020-Jan-23 08:14 042 3 gusting 4 6.1
2020-Jan-23 08:09 043 3 gusting 4 6.1
2020-Jan-23 08:04 047 2 gusting 4 6.1
2020-Jan-23 07:59 051 2 gusting 4 5.6
2020-Jan-23 07:54 054 3 gusting 4 6.1
2020-Jan-23 07:49 044 3 gusting 4 6.1
2020-Jan-23 07:44 038 3 gusting 4 6.1
2020-Jan-23 07:39 049 2 gusting 4 6.1
2020-Jan-23 07:34 053 2 gusting 3 6.1
2020-Jan-23 07:29 055 2 gusting 4 6.1
2020-Jan-23 07:24 057 3 gusting 6 6.1
2020-Jan-23 07:19 063 4 gusting 6 6.1
2020-Jan-23 07:13 045 4 gusting 6 6.1
2020-Jan-23 07:09 042 4 gusting 6 6.1
2020-Jan-23 07:03 043 4 gusting 6 6.1
2020-Jan-23 06:58 048 3 gusting 6 6.1
2020-Jan-23 06:53 049 3 gusting 5 6.1
2020-Jan-23 06:48 061 3 gusting 6 6.1
2020-Jan-23 06:43 044 4 gusting 6 6.1
2020-Jan-23 06:38 040 4 gusting 7 6.1
2020-Jan-23 06:33 039 4 gusting 7 6.1
2020-Jan-23 06:28 042 4 gusting 6 6.1
2020-Jan-23 06:23 042 4 gusting 6 6.7
2020-Jan-23 06:18 049 4 gusting 7 6.7
2020-Jan-23 06:13 049 4 gusting 7 6.7
2020-Jan-23 06:08 046 5 gusting 8 6.7
2020-Jan-23 06:03 049 5 gusting 8 6.7
2020-Jan-23 05:58 049 4 gusting 7 6.1
2020-Jan-23 05:53 051 4 gusting 7 6.1
2020-Jan-23 05:48 039 4 gusting 5 6.1
2020-Jan-23 05:43 046 4 gusting 5 6.1
2020-Jan-23 05:38 046 3 gusting 5 6.1
2020-Jan-23 05:33 044 4 gusting 6 6.1
2020-Jan-23 05:28 042 4 gusting 6 6.1
2020-Jan-23 05:23 052 3 gusting 6 6.1
2020-Jan-23 05:18 046 3 gusting 5 6.1
2020-Jan-23 05:13 044 3 gusting 5 6.1
2020-Jan-23 05:08 040 4 gusting 5 6.1
2020-Jan-23 05:03 045 4 gusting 5 6.1
2020-Jan-23 04:58 040 4 gusting 5 6.1
2020-Jan-23 04:53 040 4 gusting 6 6.7
2020-Jan-23 04:48 043 4 gusting 6 6.7
2020-Jan-23 04:43 042 4 gusting 6 6.7
2020-Jan-23 04:38 049 4 gusting 6 6.7
2020-Jan-23 04:33 038 4 gusting 7 6.7
2020-Jan-23 04:28 042 5 gusting 7 6.7
2020-Jan-23 04:23 053 4 gusting 6 6.7
2020-Jan-23 04:18 048 4 gusting 6 6.7
2020-Jan-23 04:13 040 4 gusting 8 6.7
2020-Jan-23 04:08 044 5 gusting 8 7.2
2020-Jan-23 04:03 046 4 gusting 7 7.2